STARLINK-36140 (67034 NORAD) Tracking and Keplerian Element Data

This shows tracking and keplerian element data for the satellite.

Feedback or suggestion? Click here.




ElementValue
Catalog67034
NameSTARLINK-36140
Epoch Orbit132
Epoch Day354.25003472
Epoch Year2025
RAAN136.2775
Inclination42.9997
Eccentricity0.0001653
Argument of Perigee258.8744
Mean Anonmoly333.7865
Mean Motion15.88668928
Decay Rate-0.01335981
L11 67034U 25294E 25354.25003472 -.01335981 00000+0 -52208-2 0 9994
L22 67034 42.9997 136.2775 0001653 258.8744 333.7865 15.88668928 1328



Live tracking and technical data element details for STARLINK-36140 (NORAD 67034). STARLINK-36140 can be tracked NOW for your location showing map with azimuth and elevation plus other details from your city location.







IsCatalogInMostPopularTable: catalog: 67034, numindb: 55
Update: records affected: 1



GetName: 67034 STARLINK-36140

Hit Count: updated at: Sat, 14 Mar 2026 02:54:21 GMT